Ahoskie, NC

8:57 AM EDT on May 27, 2018 (GMT -0400)
Tri County

Weather History for KASJ - November, 2013

Change the Weather History Date:

Saturday, November 30, 2013

  Actual Average (WUND) Record (WUND)
Temperature  
Mean Temperature 38 °F -  
Max Temperature 49 °F - - (-1)
Min Temperature 27 °F - - (-1)
Degree Days  
Heating Degree Days 27    
Moisture  
Dew Point 31 °F    
Average Humidity 78    
Maximum Humidity 94    
Minimum Humidity 59    
Precipitation  
Precipitation 0.00 in - - ()
Sea Level Pressure  
Sea Level Pressure 30.55 in    
Wind  
Wind Speed 5 mph (North)    
Max Wind Speed 12 mph    
Max Gust Speed 18 mph    
Visibility 10 miles    
Events      
Averages and records for this station are not official NWS values.
T = Trace of Precipitation, MM = Missing Value Source: NWS Daily Summary

Daily Weather History Graph

Daily Weather History Graph

Search for Another Location

Airport or City:

Astronomy

Nov. 30, 2013 Rise Set
Actual Time 7:00 AM EST 4:53 PM EST
Civil Twilight 6:32 AM EST 5:22 PM EST
Nautical Twilight 6:00 AM EST 5:53 PM EST
Astronomical Twilight 5:29 AM EST 6:25 PM EST
Moon 4:13 AM EST (11/30) 3:13 PM EST (11/30)
Length of Visible Light 10h 49m
Length of Day
9h 53m
Waning Crescent, 7% of the Moon is Illuminated
Nov 30
Waning Crescent
Dec 2
New
Dec 9
First Quarter
Dec 17
Full
Dec 25
Last Quarter

Hourly Weather History & Observations

Time (EST) Temp. Windchill Dew Point Humidity Pressure Visibility Wind Dir Wind Speed Gust Speed Precip Events Conditions
12:15 AM 30.6 °F 25.8 °F 25.2 °F 80% 30.65 in 10.0 mi North 4.6 mph - N/A   Clear
12:35 AM 29.8 °F 24.9 °F 24.8 °F 81% 30.65 in 10.0 mi North 4.6 mph - N/A   Clear
12:55 AM 31.5 °F 25.8 °F 25.7 °F 79% 30.65 in 10.0 mi North 5.8 mph - N/A   Clear
1:15 AM 30.6 °F 24.7 °F 25.3 °F 81% 30.65 in 10.0 mi North 5.8 mph - N/A   Clear
1:35 AM 30.7 °F 24.9 °F 25.3 °F 80% 30.64 in 10.0 mi North 5.8 mph - N/A   Clear
1:55 AM 30.7 °F 24.9 °F 25.3 °F 80% 30.65 in 10.0 mi North 5.8 mph - N/A   Clear
2:15 AM 30.9 °F 26.2 °F 25.3 °F 80% 30.65 in 10.0 mi North 4.6 mph - N/A   Clear
2:35 AM 31.1 °F 26.4 °F 25.2 °F 79% 30.65 in 10.0 mi North 4.6 mph - N/A   Clear
2:55 AM 31.6 °F 27.0 °F 25.2 °F 77% 30.64 in 10.0 mi North 4.6 mph - N/A   Clear
3:15 AM 31.6 °F 28.3 °F 25.3 °F 78% 30.64 in 10.0 mi North 3.5 mph - N/A   Clear
3:35 AM 29.7 °F 26.1 °F 24.6 °F 81% 30.64 in 10.0 mi North 3.5 mph - N/A   Clear
3:55 AM 28.4 °F 23.3 °F 24.1 °F 84% 30.63 in 10.0 mi North 4.6 mph - N/A   Clear
4:15 AM 28.4 °F 23.3 °F 24.6 °F 86% 30.63 in 10.0 mi North 4.6 mph - N/A   Clear
4:35 AM 29.7 °F 24.7 °F 25.2 °F 83% 30.63 in 10.0 mi North 4.6 mph - N/A   Clear
4:55 AM 27.7 °F 22.4 °F 24.4 °F 88% 30.63 in 10.0 mi North 4.6 mph - N/A   Clear
5:15 AM 28.9 °F 25.2 °F 25.2 °F 86% 30.63 in 10.0 mi North 3.5 mph - N/A   Clear
5:35 AM 27.1 °F 21.8 °F 23.9 °F 88% 30.63 in 10.0 mi North 4.6 mph - N/A   Clear
5:55 AM 27.5 °F 22.2 °F 24.3 °F 88% 30.63 in 10.0 mi North 4.6 mph - N/A   Clear
6:15 AM 27.1 °F 21.8 °F 23.9 °F 88% 30.63 in 10.0 mi North 4.6 mph - N/A   Clear
6:35 AM 27.3 °F 22.0 °F 24.1 °F 88% 30.63 in 10.0 mi North 4.6 mph - N/A   Clear
6:55 AM 27.5 °F 22.2 °F 24.4 °F 88% 30.64 in 10.0 mi North 4.6 mph - N/A   Clear
7:15 AM 27.5 °F 22.2 °F 24.4 °F 88% 30.64 in 10.0 mi North 4.6 mph - N/A   Clear
7:35 AM 28.2 °F 23.1 °F 25.5 °F 90% 30.64 in 10.0 mi North 4.6 mph - N/A   Clear
7:55 AM 30.2 °F 22.6 °F 26.8 °F 87% 30.64 in 10.0 mi North 8.1 mph - N/A   Clear
8:15 AM 31.6 °F 25.1 °F 27.5 °F 85% 30.64 in 10.0 mi North 6.9 mph - N/A   Clear
8:35 AM 32.7 °F 25.7 °F 28.6 °F 85% 30.63 in 10.0 mi North 8.1 mph - N/A   Clear
8:55 AM 34.7 °F 28.1 °F 29.3 °F 81% 30.64 in 10.0 mi North 8.1 mph - N/A   Clear
9:10 AM 35.6 °F 28.6 °F 29.8 °F 80% 30.64 in 10.0 mi North 9.2 mph - N/A   Clear
9:35 AM 37.6 °F 31.0 °F 30.9 °F 77% 30.64 in 10.0 mi NNE 9.2 mph - N/A   Clear
9:55 AM 39.0 °F 32.8 °F 31.6 °F 75% 30.63 in 10.0 mi North 9.2 mph - N/A   Clear
10:15 AM 39.9 °F 34.5 °F 31.6 °F 72% 30.63 in 10.0 mi NNE 8.1 mph 18.4 mph N/A   Clear
10:35 AM 41.0 °F 35.8 °F 32.0 °F 70% 30.62 in 10.0 mi NNE 8.1 mph - N/A   Clear
10:55 AM 42.6 °F 36.3 °F 32.4 °F 67% 30.61 in 10.0 mi North 11.5 mph 16.1 mph N/A   Clear
11:15 AM 43.5 °F 38.3 °F 32.7 °F 66% 30.60 in 10.0 mi North 9.2 mph - N/A   Clear
11:35 AM 44.8 °F 39.9 °F 33.3 °F 64% 30.59 in 10.0 mi North 9.2 mph - N/A   Clear
11:55 AM 45.3 °F 41.6 °F 33.3 °F 63% 30.57 in 10.0 mi North 6.9 mph - N/A   Clear
12:15 PM 46.0 °F 42.5 °F 33.8 °F 62% 30.56 in 10.0 mi NNE 6.9 mph - N/A   Clear
12:35 PM 46.6 °F - 34.2 °F 62% 30.55 in 10.0 mi North 5.8 mph - N/A   Clear
12:55 PM 47.1 °F - 34.7 °F 62% 30.54 in 10.0 mi NNE 5.8 mph - N/A   Clear
1:15 PM 47.5 °F - 34.7 °F 61% 30.53 in 10.0 mi NNE 4.6 mph - N/A   Clear
1:35 PM 48.0 °F - 34.7 °F 60% 30.53 in 10.0 mi North 8.1 mph - N/A   Clear
1:55 PM 48.0 °F - 35.1 °F 61% 30.52 in 10.0 mi NE 5.8 mph - N/A   Clear
2:15 PM 48.6 °F - 35.4 °F 60% 30.51 in 10.0 mi NNW 5.8 mph - N/A   Clear
2:30 PM 49.5 °F - 35.8 °F 59% 30.50 in 10.0 mi NNE 8.1 mph - N/A   Clear
2:55 PM 49.5 °F - 35.8 °F 59% 30.50 in 10.0 mi North 6.9 mph - N/A   Clear
3:15 PM 49.5 °F - 36.0 °F 60% 30.49 in 10.0 mi NE 3.5 mph - N/A   Clear
3:35 PM 49.3 °F - 35.8 °F 60% 30.49 in 10.0 mi North 8.1 mph - N/A   Clear
3:55 PM 48.4 °F - 35.8 °F 62% 30.48 in 10.0 mi North 5.8 mph - N/A   Clear
4:15 PM 47.8 °F - 35.8 °F 63% 30.48 in 10.0 mi North 6.9 mph - N/A   Clear
4:35 PM 46.8 °F - 35.8 °F 66% 30.48 in 10.0 mi NNE 4.6 mph - N/A   Clear
4:55 PM 45.0 °F 43.5 °F 35.8 °F 70% 30.47 in 10.0 mi North 3.5 mph - N/A   Clear
5:15 PM 43.5 °F 41.9 °F 35.6 °F 74% 30.47 in 10.0 mi NNE 3.5 mph - N/A   Clear
5:35 PM 43.0 °F - 35.8 °F 76% 30.47 in 10.0 mi Calm Calm - N/A   Clear
5:55 PM 43.0 °F - 35.8 °F 76% 30.46 in 10.0 mi Calm Calm - N/A   Clear
6:15 PM 41.9 °F 40.0 °F 35.6 °F 78% 30.45 in 10.0 mi North 3.5 mph - N/A   Clear
6:35 PM 40.3 °F - 35.2 °F 82% 30.45 in 10.0 mi Calm Calm - N/A   Clear
6:50 PM 38.7 °F - 34.9 °F 86% 30.45 in 10.0 mi Calm Calm - N/A   Clear
7:15 PM 37.6 °F - 34.7 °F 89% 30.44 in 10.0 mi Calm Calm - N/A   Clear
7:35 PM 37.2 °F - 34.9 °F 91% 30.43 in 10.0 mi Calm Calm - N/A   Clear
7:55 PM 36.0 °F - 33.8 °F 92% 30.43 in 10.0 mi Calm Calm - N/A   Clear
8:15 PM 35.6 °F - 33.4 °F 92% 30.42 in 10.0 mi Calm Calm - N/A   Clear
8:35 PM 35.8 °F - 33.8 °F 92% 30.42 in 10.0 mi Calm Calm - N/A   Clear
8:55 PM 34.7 °F - 33.1 °F 94% 30.43 in 10.0 mi Calm Calm - N/A   Mostly Cloudy
9:15 PM 36.9 °F 34.3 °F 34.7 °F 92% 30.42 in 10.0 mi North 3.5 mph - N/A   Overcast
9:35 PM 38.5 °F - 35.4 °F 89% 30.42 in 10.0 mi Calm Calm - N/A   Overcast
9:55 PM 37.9 °F - 34.9 °F 89% 30.42 in 10.0 mi Calm Calm - N/A   Mostly Cloudy
10:15 PM 37.6 °F - 35.1 °F 91% 30.41 in 10.0 mi Calm Calm - N/A   Mostly Cloudy
10:35 PM 38.8 °F - 35.6 °F 88% 30.41 in 10.0 mi Calm Calm - N/A   Overcast
10:55 PM 38.8 °F 36.5 °F 35.6 °F 88% 30.40 in 10.0 mi North 3.5 mph - N/A   Overcast
11:15 PM 38.8 °F 35.4 °F 35.6 °F 88% 30.39 in 10.0 mi North 4.6 mph - N/A   Overcast
11:35 PM 38.5 °F 36.1 °F 35.1 °F 87% 30.38 in 10.0 mi North 3.5 mph - N/A   Overcast
11:55 PM 38.3 °F 35.9 °F 34.7 °F 87% 30.37 in 10.0 mi North 3.5 mph - N/A   Mostly Cloudy